Precipitable_Water
0.70 0.67 0.66 0.67 0.68 0.66 0.66 0.67 0.69 0.69 0.70 0.68 0.67 0.66 0.65 0.63 0.62 0.59 0.57 0.52 0.50 0.50 0.47 0.44 0.45 0.46 0.46 0.46 0.44 0.41 0.41 0.35 0.30 0.25 0.26 0.38 0.41 0.43 0.38 0.38 0.38 0.39 0.35 0.30 0.28 0.22 0.18 0.19 0.19 0.19 0.21 0.20 0.20 0.20 0.22 0.22 0.22 0.20 0.15 0.14 0.13 0.19 0.14 0.18 0.16 0.15 0.21 0.17 0.17 0.16 0.15 0.15 0.13 0.16 0.17 0.20 0.19 0.19 0.21 0.19 0.23 0.26 0.26 0.30 0.38 0.49 0.53 0.55
0.69 0.67 0.66 0.67 0.69 0.68 0.67 0.68 0.70 0.69 0.69 0.68 0.67 0.65 0.64 0.62 0.60 0.57 0.55 0.52 0.48 0.47 0.46 0.46 0.46 0.47 0.49 0.45 0.41 0.43 0.39 0.36 0.32 0.29 0.32 0.42 0.43 0.38 0.37 0.38 0.38 0.36 0.34 0.26 0.21 0.20 0.19 0.17 0.20 0.18 0.19 0.18 0.20 0.21 0.22 0.18 0.20 0.16 0.13 0.14 0.17 0.20 0.19 0.20 0.18 0.17 0.16 0.15 0.16 0.16 0.16 0.16 0.17 0.16 0.18 0.15 0.15 0.16 0.17 0.19 0.21 0.21 0.25 0.29 0.34 0.43 0.44 0.46
0.68 0.67 0.66 0.67 0.69 0.68 0.68 0.68 0.69 0.69 0.68 0.67 0.66 0.64 0.62 0.60 0.58 0.57 0.53 0.51 0.48 0.45 0.46 0.45 0.48 0.49 0.47 0.46 0.41 0.41 0.40 0.29 0.33 0.30 0.37 0.44 0.38 0.36 0.37 0.37 0.36 0.37 0.30 0.28 0.27 0.23 0.21 0.21 0.19 0.17 0.18 0.17 0.15 0.16 0.19 0.19 0.17 0.17 0.17 0.15 0.20 0.23 0.23 0.21 0.18 0.17 0.17 0.17 0.15 0.15 0.15 0.17 0.19 0.18 0.20 0.15 0.16 0.17 0.15 0.16 0.18 0.19 0.20 0.24 0.29 0.34 0.39 0.42
0.69 0.67 0.67 0.66 0.67 0.68 0.68 0.67 0.68 0.68 0.67 0.67 0.64 0.62 0.60 0.58 0.57 0.56 0.54 0.51 0.48 0.46 0.45 0.46 0.48 0.49 0.48 0.44 0.44 0.44 0.36 0.35 0.22 0.32 0.40 0.40 0.36 0.37 0.36 0.35 0.36 0.34 0.33 0.31 0.28 0.23 0.23 0.21 0.18 0.17 0.17 0.15 0.14 0.16 0.14 0.18 0.13 0.17 0.15 0.17 0.19 0.21 0.19 0.19 0.17 0.15 0.16 0.18 0.16 0.15 0.16 0.16 0.19 0.20 0.19 0.15 0.16 0.16 0.17 0.18 0.19 0.19 0.20 0.22 0.27 0.31 0.35 0.38
0.68 0.67 0.67 0.65 0.66 0.67 0.66 0.66 0.67 0.67 0.66 0.65 0.64 0.62 0.59 0.57 0.57 0.54 0.54 0.51 0.49 0.46 0.45 0.46 0.48 0.49 0.47 0.44 0.41 0.42 0.38 0.18 0.23 0.37 0.43 0.38 0.36 0.36 0.36 0.36 0.35 0.33 0.32 0.30 0.24 0.21 0.21 0.18 0.16 0.17 0.14 0.14 0.14 0.12 0.14 0.16 0.17 0.17 0.13 0.17 0.19 0.19 0.17 0.17 0.15 0.16 0.16 0.18 0.17 0.17 0.14 0.15 0.20 0.19 0.17 0.17 0.13 0.15 0.18 0.20 0.20 0.25 0.24 0.26 0.28 0.32 0.34 0.35
0.68 0.66 0.65 0.65 0.64 0.66 0.65 0.66 0.66 0.65 0.64 0.63 0.62 0.62 0.59 0.57 0.56 0.55 0.53 0.52 0.50 0.48 0.45 0.46 0.49 0.47 0.48 0.43 0.38 0.35 0.31 0.11 0.33 0.38 0.39 0.37 0.36 0.36 0.36 0.37 0.35 0.32 0.29 0.24 0.22 0.20 0.18 0.18 0.15 0.14 0.14 0.14 0.13 0.10 0.14 0.15 0.16 0.12 0.14 0.15 0.17 0.19 0.16 0.16 0.16 0.16 0.17 0.17 0.16 0.15 0.18 0.19 0.17 0.17 0.18 0.17 0.16 0.20 0.24 0.24 0.23 0.26 0.27 0.30 0.32 0.33 0.31 0.32
0.66 0.66 0.65 0.64 0.63 0.64 0.63 0.65 0.65 0.64 0.63 0.62 0.61 0.61 0.59 0.57 0.55 0.55 0.54 0.52 0.50 0.48 0.46 0.46 0.48 0.50 0.44 0.41 0.38 0.32 0.23 0.27 0.31 0.44 0.41 0.36 0.35 0.38 0.37 0.36 0.35 0.30 0.27 0.22 0.21 0.19 0.18 0.16 0.15 0.12 0.13 0.14 0.14 0.13 0.15 0.14 0.15 0.15 0.15 0.16 0.14 0.16 0.14 0.16 0.16 0.17 0.17 0.17 0.16 0.18 0.20 0.17 0.17 0.14 0.19 0.17 0.17 0.21 0.24 0.25 0.24 0.26 0.30 0.30 0.28 0.29 0.28 0.30
0.66 0.64 0.63 0.63 0.63 0.62 0.62 0.63 0.64 0.62 0.62 0.61 0.60 0.60 0.59 0.57 0.56 0.55 0.53 0.52 0.50 0.47 0.47 0.46 0.49 0.49 0.44 0.34 0.24 0.20 0.20 0.23 0.38 0.43 0.38 0.37 0.36 0.36 0.39 0.36 0.33 0.30 0.25 0.23 0.21 0.19 0.18 0.17 0.15 0.17 0.14 0.13 0.14 0.14 0.16 0.13 0.13 0.14 0.15 0.17 0.16 0.15 0.16 0.17 0.17 0.17 0.18 0.18 0.19 0.19 0.16 0.16 0.18 0.17 0.20 0.18 0.19 0.20 0.23 0.24 0.25 0.25 0.26 0.29 0.28 0.29 0.30 0.30
0.66 0.64 0.62 0.61 0.62 0.62 0.61 0.62 0.63 0.62 0.61 0.61 0.60 0.58 0.57 0.56 0.55 0.54 0.52 0.51 0.49 0.47 0.46 0.47 0.49 0.49 0.45 0.34 0.26 0.23 0.18 0.37 0.46 0.42 0.38 0.35 0.35 0.37 0.38 0.32 0.33 0.27 0.24 0.24 0.23 0.23 0.18 0.17 0.18 0.18 0.14 0.13 0.16 0.14 0.14 0.13 0.10 0.17 0.16 0.17 0.16 0.15 0.17 0.18 0.18 0.18 0.18 0.18 0.18 0.16 0.16 0.18 0.19 0.20 0.16 0.18 0.20 0.21 0.24 0.23 0.23 0.23 0.23 0.24 0.29 0.30 0.30 0.31
0.65 0.64 0.63 0.61 0.60 0.60 0.59 0.59 0.61 0.62 0.61 0.60 0.58 0.56 0.54 0.55 0.54 0.53 0.52 0.51 0.48 0.46 0.46 0.46 0.50 0.48 0.35 0.26 0.24 0.19 0.35 0.46 0.45 0.41 0.37 0.36 0.36 0.35 0.34 0.31 0.30 0.28 0.25 0.22 0.24 0.23 0.20 0.21 0.20 0.19 0.20 0.16 0.17 0.15 0.16 0.15 0.15 0.19 0.17 0.17 0.16 0.16 0.17 0.19 0.17 0.18 0.19 0.18 0.18 0.16 0.15 0.17 0.20 0.17 0.13 0.21 0.21 0.23 0.23 0.23 0.24 0.23 0.23 0.23 0.25 0.30 0.32 0.32
0.66 0.63 0.62 0.61 0.60 0.59 0.58 0.57 0.58 0.59 0.59 0.58 0.56 0.55 0.54 0.54 0.54 0.53 0.52 0.50 0.48 0.46 0.46 0.45 0.50 0.42 0.33 0.27 0.24 0.17 0.51 0.43 0.43 0.38 0.37 0.37 0.35 0.32 0.31 0.30 0.31 0.29 0.27 0.23 0.24 0.26 0.26 0.24 0.22 0.20 0.17 0.15 0.16 0.15 0.15 0.17 0.21 0.20 0.18 0.17 0.16 0.18 0.18 0.18 0.18 0.17 0.18 0.16 0.18 0.17 0.15 0.19 0.20 0.19 0.14 0.20 0.25 0.25 0.22 0.23 0.24 0.24 0.24 0.25 0.25 0.26 0.31 0.33
0.68 0.64 0.62 0.60 0.59 0.59 0.58 0.57 0.57 0.57 0.57 0.56 0.55 0.55 0.54 0.54 0.54 0.53 0.51 0.50 0.47 0.47 0.46 0.46 0.47 0.44 0.30 0.25 0.23 0.28 0.47 0.43 0.40 0.38 0.36 0.35 0.33 0.31 0.32 0.33 0.33 0.31 0.28 0.22 0.23 0.25 0.26 0.24 0.23 0.18 0.15 0.18 0.14 0.15 0.15 0.20 0.20 0.19 0.17 0.13 0.15 0.16 0.15 0.17 0.16 0.16 0.18 0.17 0.20 0.20 0.16 0.15 0.17 0.15 0.16 0.20 0.24 0.24 0.23 0.23 0.24 0.25 0.26 0.26 0.27 0.28 0.29 0.32
0.69 0.66 0.63 0.61 0.59 0.59 0.58 0.57 0.57 0.57 0.57 0.56 0.56 0.55 0.54 0.54 0.53 0.53 0.51 0.49 0.49 0.47 0.45 0.46 0.45 0.43 0.31 0.18 0.26 0.42 0.48 0.45 0.38 0.37 0.35 0.37 0.34 0.34 0.35 0.35 0.34 0.32 0.30 0.24 0.23 0.24 0.25 0.25 0.24 0.19 0.22 0.20 0.17 0.13 0.17 0.21 0.18 0.19 0.18 0.17 0.14 0.14 0.12 0.16 0.18 0.18 0.17 0.18 0.21 0.20 0.09 0.14 0.18 0.20 0.21 0.23 0.23 0.23 0.22 0.22 0.24 0.25 0.26 0.26 0.27 0.28 0.30 0.33
0.70 0.68 0.65 0.61 0.59 0.58 0.58 0.57 0.56 0.56 0.56 0.56 0.56 0.55 0.55 0.54 0.53 0.52 0.51 0.48 0.50 0.47 0.46 0.43 0.47 0.36 0.25 0.17 0.37 0.44 0.47 0.45 0.39 0.34 0.34 0.37 0.33 0.31 0.33 0.34 0.33 0.32 0.32 0.27 0.27 0.29 0.27 0.27 0.25 0.23 0.25 0.19 0.16 0.24 0.18 0.17 0.18 0.14 0.16 0.18 0.13 0.11 0.12 0.18 0.18 0.18 0.15 0.21 0.21 0.20 0.10 0.11 0.17 0.20 0.24 0.26 0.25 0.22 0.20 0.21 0.22 0.23 0.25 0.26 0.27 0.28 0.29 0.32
0.71 0.68 0.65 0.63 0.60 0.58 0.57 0.56 0.56 0.55 0.55 0.55 0.55 0.55 0.55 0.54 0.53 0.51 0.51 0.48 0.51 0.50 0.45 0.46 0.41 0.35 0.20 0.25 0.41 0.50 0.47 0.45 0.34 0.32 0.35 0.34 0.30 0.27 0.28 0.30 0.29 0.31 0.31 0.30 0.28 0.30 0.29 0.26 0.22 0.19 0.18 0.23 0.21 0.19 0.15 0.14 0.17 0.19 0.12 0.09 0.14 0.13 0.17 0.21 0.24 0.21 0.15 0.19 0.22 0.19 0.11 0.11 0.15 0.19 0.23 0.25 0.25 0.23 0.20 0.21 0.22 0.22 0.23 0.24 0.26 0.27 0.28 0.29
0.72 0.68 0.66 0.64 0.61 0.59 0.57 0.56 0.55 0.55 0.55 0.55 0.54 0.55 0.55 0.54 0.51 0.50 0.51 0.49 0.48 0.50 0.50 0.31 0.35 0.32 0.22 0.17 0.32 0.51 0.40 0.31 0.29 0.36 0.37 0.36 0.34 0.27 0.29 0.27 0.29 0.29 0.30 0.28 0.31 0.30 0.29 0.28 0.23 0.21 0.19 0.21 0.19 0.16 0.15 0.14 0.14 0.17 0.12 0.16 0.13 0.14 0.17 0.18 0.22 0.23 0.21 0.19 0.21 0.18 0.11 0.16 0.17 0.22 0.23 0.24 0.22 0.21 0.20 0.19 0.20 0.21 0.22 0.23 0.24 0.25 0.27 0.28
0.73 0.70 0.66 0.64 0.63 0.60 0.58 0.56 0.55 0.54 0.55 0.55 0.55 0.54 0.54 0.54 0.55 0.51 0.51 0.51 0.46 0.45 0.39 0.33 0.30 0.29 0.17 0.33 0.44 0.31 0.27 0.33 0.40 0.33 0.34 0.38 0.35 0.30 0.28 0.26 0.24 0.25 0.27 0.28 0.29 0.29 0.26 0.24 0.24 0.23 0.22 0.18 0.19 0.19 0.14 0.13 0.13 0.13 0.14 0.15 0.20 0.15 0.15 0.13 0.20 0.21 0.21 0.18 0.15 0.18 0.14 0.12 0.15 0.20 0.21 0.22 0.21 0.20 0.19 0.18 0.19 0.20 0.20 0.21 0.22 0.23 0.24 0.25
0.74 0.70 0.67 0.65 0.63 0.61 0.58 0.56 0.55 0.55 0.55 0.55 0.53 0.52 0.50 0.55 0.59 0.52 0.46 0.44 0.45 0.39 0.36 0.38 0.31 0.23 0.17 0.30 0.22 0.23 0.31 0.32 0.33 0.33 0.33 0.36 0.35 0.32 0.30 0.26 0.24 0.24 0.24 0.21 0.24 0.22 0.22 0.19 0.24 0.17 0.17 0.18 0.19 0.19 0.14 0.10 0.13 0.15 0.12 0.12 0.15 0.17 0.16 0.14 0.15 0.20 0.19 0.19 0.15 0.16 0.15 0.14 0.14 0.15 0.16 0.18 0.20 0.19 0.17 0.17 0.18 0.18 0.18 0.19 0.20 0.21 0.22 0.23
0.75 0.71 0.67 0.64 0.62 0.60 0.59 0.57 0.56 0.55 0.55 0.54 0.54 0.57 0.57 0.58 0.56 0.53 0.39 0.35 0.28 0.19 0.16 0.19 0.23 0.14 0.12 0.17 0.32 0.32 0.31 0.35 0.37 0.33 0.28 0.31 0.33 0.33 0.31 0.29 0.27 0.21 0.19 0.18 0.17 0.21 0.20 0.20 0.22 0.18 0.13 0.15 0.15 0.18 0.16 0.17 0.17 0.17 0.18 0.15 0.13 0.14 0.15 0.13 0.17 0.20 0.19 0.15 0.14 0.13 0.11 0.12 0.13 0.14 0.16 0.17 0.20 0.19 0.19 0.19 0.19 0.18 0.18 0.18 0.18 0.20 0.21 0.21
0.76 0.72 0.68 0.64 0.62 0.61 0.60 0.58 0.57 0.55 0.56 0.51 0.50 0.49 0.43 0.29 0.26 0.25 0.34 0.29 0.22 0.20 0.22 0.22 0.22 0.23 0.28 0.26 0.26 0.35 0.39 0.37 0.27 0.32 0.32 0.33 0.30 0.27 0.26 0.25 0.24 0.23 0.20 0.15 0.19 0.21 0.23 0.15 0.12 0.14 0.14 0.15 0.16 0.18 0.19 0.19 0.18 0.18 0.17 0.16 0.15 0.15 0.15 0.19 0.19 0.20 0.20 0.14 0.12 0.12 0.13 0.13 0.13 0.15 0.15 0.16 0.17 0.17 0.18 0.17 0.17 0.17 0.17 0.18 0.18 0.18 0.20 0.21
0.76 0.74 0.69 0.65 0.63 0.62 0.61 0.59 0.57 0.57 0.56 0.54 0.51 0.39 0.22 0.21 0.17 0.16 0.24 0.25 0.25 0.27 0.27 0.27 0.25 0.26 0.29 0.30 0.31 0.29 0.23 0.26 0.31 0.29 0.31 0.37 0.32 0.25 0.22 0.23 0.19 0.17 0.19 0.23 0.21 0.23 0.20 0.15 0.14 0.16 0.19 0.20 0.20 0.19 0.18 0.17 0.17 0.17 0.16 0.15 0.13 0.14 0.13 0.18 0.17 0.20 0.20 0.14 0.11 0.13 0.13 0.12 0.12 0.14 0.15 0.16 0.16 0.14 0.14 0.14 0.14 0.15 0.17 0.18 0.19 0.19 0.19 0.21
0.77 0.75 0.70 0.65 0.64 0.62 0.60 0.59 0.59 0.58 0.60 0.56 0.48 0.35 0.32 0.28 0.35 0.52 0.23 0.16 0.21 0.27 0.29 0.30 0.29 0.27 0.36 0.34 0.33 0.34 0.28 0.22 0.24 0.28 0.35 0.33 0.27 0.21 0.22 0.20 0.17 0.15 0.21 0.23 0.21 0.17 0.14 0.12 0.17 0.20 0.21 0.22 0.22 0.20 0.18 0.17 0.15 0.14 0.13 0.15 0.14 0.14 0.18 0.21 0.20 0.21 0.19 0.15 0.12 0.13 0.12 0.11 0.12 0.13 0.14 0.13 0.13 0.12 0.13 0.13 0.13 0.14 0.15 0.17 0.19 0.20 0.21 0.22
0.76 0.74 0.70 0.67 0.64 0.61 0.59 0.61 0.60 0.60 0.54 0.46 0.37 0.38 0.39 0.44 0.48 0.53 0.35 0.20 0.18 0.24 0.25 0.24 0.23 0.24 0.27 0.34 0.34 0.35 0.22 0.18 0.18 0.25 0.28 0.30 0.24 0.23 0.21 0.18 0.17 0.16 0.19 0.19 0.15 0.15 0.13 0.14 0.18 0.23 0.22 0.20 0.19 0.19 0.16 0.15 0.15 0.15 0.14 0.13 0.12 0.19 0.14 0.12 0.21 0.21 0.20 0.16 0.13 0.13 0.13 0.12 0.13 0.14 0.13 0.14 0.14 0.14 0.15 0.15 0.15 0.16 0.16 0.16 0.17 0.19 0.21 0.22
0.74 0.73 0.71 0.66 0.62 0.60 0.61 0.63 0.63 0.55 0.49 0.44 0.40 0.41 0.53 0.47 0.46 0.43 0.28 0.18 0.16 0.19 0.21 0.25 0.27 0.26 0.24 0.23 0.32 0.29 0.21 0.21 0.21 0.21 0.31 0.28 0.21 0.25 0.21 0.18 0.16 0.17 0.17 0.17 0.16 0.15 0.14 0.19 0.22 0.20 0.20 0.18 0.17 0.16 0.14 0.13 0.12 0.14 0.14 0.15 0.14 0.15 0.17 0.15 0.16 0.18 0.17 0.18 0.18 0.17 0.13 0.12 0.12 0.11 0.13 0.18 0.19 0.17 0.16 0.16 0.16 0.17 0.18 0.19 0.20 0.21 0.23 0.22
0.73 0.72 0.71 0.68 0.63 0.62 0.65 0.65 0.51 0.45 0.50 0.47 0.41 0.52 0.56 0.51 0.47 0.40 0.26 0.20 0.19 0.20 0.29 0.25 0.28 0.28 0.29 0.38 0.35 0.24 0.26 0.27 0.28 0.28 0.29 0.28 0.23 0.22 0.20 0.21 0.18 0.16 0.18 0.18 0.16 0.15 0.17 0.24 0.25 0.20 0.18 0.17 0.16 0.14 0.13 0.14 0.11 0.13 0.16 0.15 0.15 0.17 0.17 0.18 0.18 0.14 0.11 0.11 0.19 0.17 0.08 0.08 0.15 0.15 0.16 0.19 0.17 0.15 0.16 0.15 0.14 0.15 0.17 0.18 0.18 0.18 0.21 0.23
0.75 0.74 0.71 0.69 0.66 0.66 0.70 0.47 0.43 0.49 0.45 0.37 0.41 0.53 0.53 0.51 0.49 0.38 0.25 0.18 0.13 0.19 0.22 0.15 0.26 0.22 0.35 0.26 0.29 0.29 0.26 0.21 0.33 0.32 0.30 0.32 0.33 0.24 0.23 0.20 0.19 0.16 0.18 0.18 0.16 0.16 0.18 0.24 0.23 0.19 0.17 0.15 0.15 0.14 0.15 0.15 0.13 0.11 0.15 0.23 0.20 0.18 0.16 0.15 0.14 0.13 0.09 0.08 0.20 0.22 0.10 0.07 0.10 0.09 0.09 0.10 0.10 0.11 0.14 0.15 0.14 0.15 0.16 0.18 0.18 0.19 0.22 0.24
0.79 0.75 0.71 0.71 0.72 0.73 0.49 0.33 0.49 0.51 0.36 0.36 0.52 0.56 0.52 0.45 0.50 0.40 0.19 0.16 0.12 0.20 0.14 0.26 0.20 0.26 0.31 0.28 0.26 0.26 0.13 0.16 0.36 0.36 0.30 0.33 0.26 0.31 0.18 0.17 0.19 0.22 0.23 0.21 0.17 0.15 0.20 0.21 0.21 0.20 0.18 0.15 0.15 0.13 0.17 0.16 0.13 0.11 0.21 0.25 0.20 0.18 0.15 0.16 0.15 0.14 0.12 0.19 0.18 0.18 0.15 0.09 0.08 0.10 0.12 0.12 0.11 0.12 0.14 0.15 0.14 0.14 0.16 0.18 0.20 0.23 0.24 0.25
0.83 0.76 0.72 0.73 0.76 0.71 0.50 0.61 0.49 0.40 0.37 0.50 0.56 0.53 0.52 0.48 0.49 0.36 0.18 0.11 0.10 0.22 0.16 0.21 0.23 0.41 0.31 0.29 0.30 0.19 0.22 0.29 0.18 0.27 0.33 0.33 0.30 0.25 0.20 0.18 0.16 0.17 0.21 0.18 0.10 0.24 0.19 0.16 0.17 0.17 0.17 0.15 0.14 0.16 0.22 0.18 0.14 0.19 0.26 0.26 0.20 0.18 0.19 0.16 0.17 0.14 0.15 0.14 0.10 0.15 0.19 0.11 0.09 0.12 0.14 0.13 0.11 0.11 0.13 0.14 0.14 0.15 0.18 0.20 0.21 0.23 0.24 0.25
0.91 0.79 0.74 0.74 0.78 0.72 0.72 0.62 0.52 0.38 0.52 0.59 0.55 0.55 0.50 0.52 0.37 0.22 0.16 0.11 0.26 0.19 0.35 0.18 0.37 0.31 0.30 0.30 0.25 0.24 0.24 0.26 0.17 0.27 0.33 0.32 0.33 0.26 0.17 0.21 0.20 0.19 0.22 0.19 0.13 0.23 0.25 0.21 0.20 0.19 0.16 0.14 0.19 0.22 0.24 0.21 0.14 0.20 0.24 0.24 0.21 0.20 0.19 0.17 0.14 0.15 0.13 0.12 0.08 0.13 0.18 0.09 0.07 0.09 0.10 0.14 0.13 0.12 0.13 0.14 0.14 0.16 0.19 0.20 0.20 0.22 0.24 0.27
0.98 0.85 0.78 0.76 0.78 0.71 0.67 0.67 0.56 0.62 0.63 0.58 0.58 0.55 0.53 0.40 0.28 0.17 0.14 0.09 0.25 0.17 0.22 0.26 0.21 0.20 0.25 0.20 0.21 0.24 0.21 0.24 0.29 0.29 0.29 0.25 0.27 0.28 0.25 0.31 0.23 0.20 0.19 0.21 0.20 0.25 0.28 0.30 0.29 0.23 0.17 0.21 0.22 0.23 0.24 0.23 0.22 0.25 0.24 0.18 0.17 0.17 0.17 0.17 0.15 0.14 0.11 0.07 0.08 0.14 0.16 0.12 0.07 0.10 0.12 0.12 0.13 0.15 0.15 0.14 0.17 0.20 0.21 0.20 0.21 0.23 0.25 0.27
1.02 0.92 0.82 0.80 0.66 0.66 0.65 0.51 0.56 0.65 0.66 0.60 0.55 0.53 0.46 0.34 0.20 0.14 0.11 0.12 0.21 0.25 0.27 0.23 0.20 0.25 0.20 0.17 0.15 0.21 0.22 0.24 0.25 0.25 0.22 0.27 0.24 0.25 0.24 0.22 0.27 0.22 0.19 0.19 0.19 0.21 0.25 0.24 0.22 0.24 0.28 0.27 0.25 0.21 0.26 0.27 0.26 0.25 0.18 0.15 0.16 0.15 0.18 0.15 0.15 0.16 0.08 0.07 0.15 0.17 0.17 0.15 0.07 0.08 0.15 0.18 0.19 0.16 0.15 0.14 0.17 0.20 0.18 0.18 0.20 0.24 0.27 0.25
1.02 0.98 0.91 0.80 0.76 0.78 0.55 0.50 0.69 0.70 0.66 0.59 0.55 0.42 0.34 0.19 0.23 0.14 0.13 0.23 0.13 0.23 0.20 0.18 0.22 0.20 0.17 0.18 0.18 0.18 0.19 0.23 0.25 0.22 0.19 0.20 0.19 0.18 0.19 0.15 0.18 0.13 0.13 0.14 0.15 0.21 0.18 0.19 0.24 0.24 0.30 0.25 0.22 0.19 0.21 0.23 0.25 0.21 0.18 0.16 0.11 0.10 0.12 0.09 0.13 0.09 0.09 0.07 0.14 0.19 0.18 0.14 0.10 0.09 0.15 0.18 0.17 0.17 0.17 0.20 0.20 0.19 0.18 0.21 0.24 0.26 0.26 0.25
1.04 1.01 0.99 0.89 0.81 0.72 0.68 0.79 0.78 0.72 0.67 0.57 0.49 0.42 0.26 0.19 0.13 0.17 0.15 0.17 0.15 0.25 0.20 0.23 0.19 0.19 0.18 0.17 0.16 0.18 0.23 0.16 0.24 0.23 0.22 0.22 0.18 0.18 0.20 0.19 0.19 0.15 0.10 0.15 0.15 0.16 0.19 0.24 0.23 0.23 0.24 0.28 0.24 0.15 0.17 0.16 0.20 0.20 0.16 0.15 0.12 0.09 0.10 0.08 0.11 0.13 0.13 0.15 0.19 0.18 0.22 0.11 0.10 0.12 0.15 0.15 0.17 0.17 0.20 0.22 0.21 0.19 0.21 0.22 0.23 0.21 0.21 0.23
1.06 1.04 0.97 0.95 0.85 0.79 0.76 0.80 0.78 0.72 0.60 0.55 0.43 0.34 0.27 0.18 0.15 0.19 0.15 0.17 0.21 0.29 0.26 0.22 0.22 0.22 0.20 0.15 0.17 0.19 0.17 0.21 0.21 0.21 0.22 0.19 0.20 0.16 0.19 0.21 0.22 0.17 0.16 0.18 0.14 0.15 0.12 0.13 0.20 0.20 0.16 0.25 0.23 0.19 0.18 0.16 0.19 0.18 0.20 0.17 0.13 0.11 0.09 0.08 0.09 0.08 0.10 0.11 0.16 0.21 0.15 0.09 0.08 0.09 0.20 0.20 0.21 0.21 0.22 0.23 0.22 0.22 0.22 0.22 0.22 0.22 0.23 0.24
1.05 1.03 1.01 0.99 0.92 0.84 0.82 0.82 0.81 0.73 0.60 0.49 0.38 0.29 0.20 0.17 0.18 0.15 0.15 0.18 0.26 0.26 0.22 0.27 0.21 0.19 0.19 0.19 0.22 0.22 0.19 0.18 0.22 0.21 0.20 0.19 0.16 0.17 0.16 0.17 0.21 0.21 0.19 0.14 0.18 0.18 0.14 0.13 0.27 0.28 0.26 0.24 0.20 0.26 0.27 0.22 0.19 0.21 0.21 0.23 0.17 0.13 0.16 0.10 0.14 0.13 0.13 0.13 0.13 0.15 0.12 0.13 0.11 0.18 0.19 0.21 0.21 0.20 0.22 0.21 0.20 0.19 0.20 0.21 0.20 0.21 0.22 0.25
1.03 0.97 1.02 0.91 0.86 0.87 0.87 0.85 0.83 0.71 0.57 0.44 0.32 0.25 0.20 0.19 0.15 0.18 0.16 0.25 0.27 0.23 0.25 0.26 0.24 0.19 0.18 0.19 0.24 0.21 0.27 0.20 0.21 0.21 0.20 0.19 0.19 0.17 0.20 0.20 0.19 0.21 0.19 0.13 0.20 0.15 0.17 0.15 0.28 0.31 0.31 0.26 0.25 0.29 0.28 0.29 0.13 0.18 0.20 0.15 0.17 0.25 0.19 0.15 0.15 0.16 0.15 0.12 0.09 0.13 0.12 0.11 0.15 0.13 0.12 0.13 0.13 0.14 0.18 0.18 0.18 0.18 0.19 0.20 0.18 0.18 0.22 0.26
0.95 0.98 0.82 0.87 0.87 0.93 0.92 0.88 0.83 0.69 0.57 0.41 0.30 0.22 0.24 0.22 0.22 0.19 0.26 0.24 0.28 0.25 0.24 0.17 0.20 0.18 0.17 0.18 0.20 0.21 0.23 0.24 0.23 0.20 0.16 0.22 0.19 0.20 0.19 0.21 0.22 0.22 0.23 0.18 0.18 0.21 0.15 0.18 0.29 0.27 0.22 0.29 0.32 0.32 0.31 0.33 0.31 0.23 0.16 0.20 0.27 0.28 0.25 0.17 0.10 0.14 0.12 0.09 0.07 0.10 0.07 0.07 0.08 0.05 0.15 0.14 0.14 0.15 0.15 0.17 0.18 0.17 0.19 0.17 0.17 0.19 0.23 0.26
0.95 0.90 0.85 0.83 0.91 0.99 0.99 0.93 0.81 0.67 0.54 0.39 0.28 0.26 0.27 0.23 0.25 0.24 0.33 0.31 0.29 0.27 0.22 0.19 0.21 0.23 0.18 0.20 0.20 0.21 0.25 0.18 0.22 0.21 0.17 0.20 0.15 0.22 0.21 0.20 0.25 0.23 0.23 0.25 0.18 0.22 0.20 0.14 0.23 0.30 0.29 0.31 0.34 0.31 0.27 0.32 0.36 0.27 0.22 0.35 0.19 0.15 0.13 0.18 0.14 0.08 0.07 0.08 0.08 0.09 0.09 0.09 0.09 0.07 0.10 0.11 0.13 0.14 0.15 0.16 0.17 0.18 0.19 0.18 0.19 0.20 0.25 0.29
0.99 0.89 0.71 0.85 1.01 1.02 0.99 0.94 0.77 0.61 0.48 0.36 0.30 0.26 0.28 0.25 0.28 0.28 0.38 0.33 0.29 0.26 0.21 0.24 0.21 0.23 0.23 0.19 0.21 0.23 0.23 0.17 0.22 0.19 0.16 0.21 0.15 0.21 0.19 0.21 0.23 0.25 0.25 0.24 0.19 0.23 0.24 0.15 0.21 0.30 0.29 0.31 0.31 0.27 0.16 0.21 0.32 0.35 0.34 0.27 0.31 0.22 0.17 0.14 0.14 0.13 0.12 0.08 0.08 0.06 0.08 0.07 0.08 0.10 0.12 0.12 0.13 0.14 0.16 0.18 0.19 0.19 0.20 0.19 0.20 0.22 0.26 0.30
0.87 0.77 0.70 0.97 1.06 1.07 1.05 0.89 0.68 0.57 0.44 0.32 0.31 0.29 0.31 0.27 0.29 0.36 0.38 0.34 0.31 0.26 0.23 0.24 0.25 0.21 0.24 0.23 0.22 0.20 0.23 0.20 0.20 0.20 0.17 0.22 0.17 0.26 0.21 0.24 0.22 0.24 0.25 0.25 0.22 0.24 0.21 0.23 0.15 0.25 0.34 0.31 0.21 0.24 0.18 0.20 0.19 0.23 0.23 0.21 0.24 0.21 0.27 0.23 0.21 0.15 0.12 0.10 0.09 0.08 0.07 0.07 0.09 0.13 0.13 0.14 0.15 0.17 0.18 0.20 0.21 0.21 0.21 0.21 0.22 0.24 0.28 0.33
0.88 0.72 0.72 1.04 1.07 1.10 0.99 0.78 0.58 0.47 0.41 0.38 0.36 0.34 0.36 0.33 0.35 0.34 0.40 0.41 0.36 0.37 0.28 0.25 0.27 0.22 0.23 0.23 0.23 0.25 0.22 0.22 0.22 0.20 0.18 0.20 0.19 0.16 0.25 0.23 0.25 0.23 0.27 0.27 0.25 0.25 0.20 0.21 0.17 0.23 0.24 0.22 0.21 0.28 0.26 0.26 0.24 0.21 0.20 0.18 0.19 0.18 0.16 0.14 0.12 0.20 0.18 0.13 0.10 0.09 0.08 0.09 0.10 0.15 0.15 0.16 0.19 0.19 0.20 0.20 0.22 0.22 0.22 0.24 0.27 0.29 0.31 0.33
0.72 0.55 0.64 1.04 1.11 1.07 0.83 0.55 0.53 0.54 0.44 0.36 0.33 0.36 0.37 0.49 0.42 0.38 0.38 0.44 0.40 0.33 0.37 0.30 0.30 0.27 0.26 0.26 0.25 0.25 0.24 0.23 0.24 0.22 0.22 0.18 0.22 0.20 0.26 0.29 0.28 0.29 0.26 0.23 0.23 0.27 0.25 0.24 0.21 0.19 0.20 0.21 0.27 0.34 0.35 0.34 0.33 0.29 0.25 0.20 0.22 0.22 0.20 0.16 0.11 0.14 0.19 0.18 0.17 0.15 0.12 0.08 0.14 0.16 0.18 0.18 0.19 0.21 0.21 0.23 0.21 0.21 0.23 0.26 0.29 0.31 0.34 0.37
0.67 0.60 0.92 1.01 1.07 0.98 0.74 0.54 0.53 0.50 0.45 0.42 0.47 0.46 0.50 0.45 0.45 0.48 0.39 0.41 0.37 0.38 0.33 0.29 0.31 0.28 0.29 0.27 0.28 0.25 0.25 0.23 0.24 0.22 0.23 0.22 0.23 0.25 0.32 0.31 0.33 0.31 0.29 0.27 0.29 0.32 0.31 0.24 0.20 0.21 0.29 0.32 0.34 0.36 0.37 0.36 0.33 0.28 0.27 0.28 0.25 0.20 0.22 0.20 0.17 0.20 0.18 0.18 0.15 0.15 0.13 0.10 0.14 0.20 0.20 0.21 0.21 0.23 0.22 0.22 0.20 0.21 0.24 0.28 0.28 0.30 0.35 0.36
0.69 0.67 0.74 0.98 1.03 0.93 0.66 0.46 0.44 0.45 0.45 0.49 0.47 0.46 0.50 0.48 0.45 0.43 0.40 0.42 0.38 0.36 0.31 0.30 0.31 0.33 0.32 0.32 0.31 0.25 0.27 0.20 0.27 0.26 0.24 0.27 0.25 0.35 0.34 0.34 0.34 0.30 0.28 0.27 0.23 0.32 0.24 0.26 0.22 0.19 0.20 0.23 0.26 0.29 0.29 0.34 0.32 0.27 0.25 0.28 0.28 0.27 0.25 0.24 0.23 0.24 0.18 0.17 0.15 0.14 0.10 0.10 0.17 0.22 0.22 0.22 0.22 0.22 0.23 0.24 0.24 0.23 0.25 0.27 0.30 0.33 0.36 0.37
0.70 0.74 0.74 0.82 0.95 0.85 0.57 0.58 0.53 0.45 0.44 0.45 0.46 0.43 0.43 0.44 0.50 0.50 0.45 0.42 0.47 0.42 0.36 0.32 0.32 0.33 0.34 0.37 0.34 0.31 0.30 0.24 0.23 0.30 0.28 0.29 0.29 0.35 0.36 0.35 0.36 0.32 0.32 0.34 0.31 0.35 0.26 0.25 0.23 0.18 0.15 0.13 0.12 0.13 0.14 0.18 0.23 0.27 0.28 0.27 0.28 0.26 0.25 0.24 0.20 0.20 0.16 0.15 0.16 0.15 0.13 0.13 0.16 0.19 0.21 0.22 0.23 0.23 0.24 0.25 0.27 0.28 0.28 0.29 0.32 0.34 0.37 0.38
0.58 0.46 0.62 0.67 0.77 0.74 0.69 0.70 0.63 0.55 0.47 0.46 0.44 0.46 0.47 0.42 0.47 0.52 0.50 0.47 0.49 0.49 0.44 0.43 0.40 0.38 0.35 0.35 0.33 0.32 0.30 0.31 0.26 0.27 0.29 0.28 0.32 0.34 0.38 0.38 0.36 0.35 0.36 0.37 0.37 0.34 0.29 0.29 0.26 0.23 0.20 0.17 0.17 0.19 0.26 0.27 0.27 0.23 0.23 0.26 0.27 0.30 0.30 0.28 0.25 0.22 0.17 0.15 0.16 0.17 0.16 0.14 0.15 0.16 0.20 0.21 0.23 0.23 0.24 0.27 0.28 0.28 0.30 0.33 0.34 0.36 0.39 0.40
0.62 0.50 0.53 0.48 0.64 0.65 0.60 0.64 0.59 0.60 0.52 0.53 0.42 0.45 0.43 0.44 0.46 0.46 0.55 0.42 0.50 0.48 0.46 0.43 0.40 0.33 0.37 0.35 0.33 0.33 0.32 0.30 0.32 0.31 0.30 0.29 0.34 0.37 0.41 0.41 0.39 0.39 0.39 0.38 0.39 0.35 0.31 0.27 0.27 0.26 0.25 0.24 0.24 0.23 0.29 0.29 0.25 0.25 0.24 0.25 0.28 0.29 0.30 0.29 0.25 0.19 0.20 0.20 0.16 0.17 0.20 0.19 0.16 0.16 0.20 0.21 0.23 0.26 0.27 0.29 0.30 0.32 0.33 0.34 0.36 0.39 0.42 0.44
0.45 0.54 0.61 0.66 0.51 0.46 0.50 0.52 0.59 0.56 0.58 0.58 0.47 0.50 0.44 0.44 0.46 0.41 0.49 0.51 0.53 0.52 0.41 0.44 0.44 0.38 0.37 0.34 0.35 0.31 0.34 0.33 0.33 0.30 0.34 0.35 0.36 0.39 0.37 0.43 0.40 0.42 0.41 0.39 0.43 0.35 0.30 0.26 0.28 0.28 0.26 0.26 0.26 0.26 0.30 0.30 0.28 0.27 0.27 0.27 0.27 0.29 0.30 0.27 0.26 0.24 0.24 0.22 0.17 0.18 0.21 0.21 0.19 0.20 0.23 0.25 0.27 0.28 0.29 0.32 0.34 0.36 0.38 0.39 0.41 0.42 0.44 0.45
0.56 0.58 0.60 0.67 0.52 0.56 0.55 0.53 0.57 0.56 0.55 0.57 0.53 0.52 0.46 0.44 0.42 0.46 0.46 0.46 0.48 0.47 0.48 0.36 0.38 0.40 0.40 0.41 0.37 0.34 0.35 0.31 0.32 0.35 0.34 0.39 0.38 0.38 0.36 0.40 0.43 0.46 0.43 0.41 0.41 0.42 0.34 0.29 0.29 0.29 0.27 0.28 0.27 0.27 0.29 0.30 0.30 0.31 0.30 0.30 0.30 0.29 0.29 0.28 0.26 0.26 0.27 0.26 0.27 0.25 0.24 0.24 0.24 0.23 0.28 0.30 0.32 0.34 0.34 0.37 0.39 0.39 0.40 0.42 0.43 0.44 0.44 0.45
0.45 0.46 0.47 0.59 0.59 0.57 0.58 0.58 0.56 0.55 0.50 0.55 0.48 0.51 0.51 0.49 0.45 0.47 0.52 0.48 0.41 0.44 0.51 0.41 0.41 0.43 0.45 0.45 0.42 0.35 0.37 0.37 0.36 0.35 0.42 0.41 0.42 0.41 0.38 0.37 0.37 0.44 0.45 0.40 0.40 0.45 0.35 0.30 0.32 0.31 0.29 0.28 0.29 0.29 0.31 0.31 0.32 0.31 0.33 0.33 0.31 0.30 0.29 0.29 0.28 0.29 0.31 0.31 0.30 0.29 0.28 0.26 0.26 0.31 0.34 0.34 0.35 0.38 0.38 0.38 0.39 0.41 0.42 0.43 0.43 0.44 0.45 0.46
0.54 0.60 0.61 0.51 0.45 0.50 0.54 0.56 0.53 0.50 0.47 0.51 0.48 0.50 0.51 0.52 0.49 0.52 0.49 0.54 0.47 0.43 0.47 0.43 0.45 0.47 0.49 0.48 0.47 0.44 0.50 0.47 0.46 0.46 0.48 0.44 0.38 0.45 0.39 0.42 0.42 0.38 0.42 0.41 0.42 0.43 0.39 0.34 0.36 0.34 0.30 0.29 0.30 0.30 0.31 0.34 0.35 0.33 0.32 0.32 0.31 0.29 0.28 0.30 0.30 0.31 0.31 0.29 0.30 0.31 0.30 0.25 0.25 0.36 0.38 0.37 0.38 0.39 0.39 0.40 0.42 0.43 0.45 0.45 0.45 0.45 0.47 0.48
0.52 0.61 0.62 0.55 0.43 0.50 0.46 0.54 0.55 0.51 0.43 0.48 0.47 0.49 0.49 0.48 0.53 0.57 0.50 0.58 0.55 0.54 0.53 0.50 0.51 0.49 0.47 0.46 0.46 0.48 0.57 0.58 0.55 0.56 0.55 0.56 0.55 0.54 0.53 0.52 0.48 0.41 0.41 0.40 0.44 0.40 0.41 0.37 0.34 0.34 0.31 0.29 0.31 0.33 0.34 0.36 0.35 0.32 0.29 0.26 0.28 0.34 0.36 0.35 0.38 0.38 0.35 0.34 0.33 0.30 0.27 0.30 0.33 0.38 0.39 0.39 0.41 0.41 0.42 0.44 0.45 0.46 0.48 0.48 0.47 0.47 0.48 0.49
Wind_Speed
26 26 27 28 28 27 27 26 26 27 27 27 26 26 25 25 24 24 23 23 22 22 21 21 21 22 22 21 21 21 21 22 22 22 22 21 20 20 19 18 17 17 16 16 15 14 13 13 13 12 12 11 10 9 9 8 8 7 6 6 5 4 4 3 3 3 4 4 4 4 5 3 2 2 2 1 1 1 1 1 1 1 1 1 1 0 0 0
27 26 27 29 29 28 27 27 27 27 27 27 27 26 26 25 25 24 23 22 22 21 21 21 22 22 22 21 21 21 21 22 22 22 22 21 21 20 19 18 17 17 16 16 16 15 14 13 13 13 12 11 10 9 9 8 8 7 7 6 5 4 4 3 1 2 3 4 4 4 5 3 2 3 2 2 2 2 2 2 3 2 2 2 2 2 1 1
27 27 28 29 29 28 28 28 28 28 28 28 27 27 26 25 25 24 23 22 22 21 21 21 22 22 22 22 21 21 21 22 22 22 22 21 21 20 19 18 17 17 17 16 16 15 14 13 14 14 12 12 10 10 9 9 9 8 6 6 5 4 3 2 1 1 2 3 4 4 4 3 2 3 2 3 3 3 3 3 3 3 4 4 3 3 3 3
28 28 28 30 30 29 29 28 29 28 28 28 27 27 26 26 25 24 23 22 21 21 21 21 21 22 22 22 21 21 21 21 21 22 22 21 21 20 19 18 18 17 17 16 15 15 14 13 14 14 13 12 11 10 10 9 9 8 7 6 5 5 4 3 2 2 2 2 3 3 3 2 1 2 3 4 3 2 4 4 4 4 5 4 4 4 4 4
29 28 29 31 31 30 29 29 29 29 29 28 28 27 26 26 25 24 23 22 22 21 21 21 21 22 22 21 21 21 21 20 20 22 22 21 21 20 19 18 18 17 17 17 16 15 15 14 14 13 13 12 11 11 10 10 9 8 8 7 5 5 5 4 3 3 3 3 3 3 3 3 2 2 3 4 3 2 3 3 2 3 2 3 3 3 4 5
30 29 30 31 31 31 30 30 30 30 29 28 28 28 27 26 25 24 24 23 22 22 21 21 21 22 22 21 21 22 22 19 19 22 22 21 20 20 19 18 18 18 17 17 16 16 15 15 15 14 13 12 12 12 10 10 10 8 8 7 6 5 5 5 4 3 4 3 3 3 3 2 2 3 4 5 5 3 2 2 2 3 1 2 3 3 4 5
31 30 30 31 32 31 31 31 31 30 30 29 29 28 27 26 26 25 24 23 22 22 22 21 21 22 22 22 22 22 22 19 19 21 22 21 20 19 19 18 18 18 18 17 17 16 16 16 16 15 14 12 12 12 10 11 11 10 9 8 6 5 5 5 5 4 3 3 3 3 3 3 4 4 3 5 6 5 3 3 3 3 2 2 3 4 5 5
31 31 31 32 32 32 32 32 32 31 30 30 29 28 28 27 26 25 24 23 23 22 22 22 22 22 22 22 22 21 22 20 19 21 22 20 19 19 18 18 18 18 18 18 17 16 16 16 16 15 13 12 12 11 11 11 11 10 9 8 8 6 6 6 6 5 4 4 4 4 4 4 4 3 4 5 7 6 4 4 4 4 3 4 4 5 6 6
32 32 32 33 33 32 32 32 32 32 31 30 29 29 28 27 26 25 24 23 23 22 22 22 22 22 22 22 22 20 21 21 19 21 21 20 19 19 18 18 18 18 18 18 17 17 17 16 16 14 13 12 12 12 11 11 11 10 9 9 8 7 7 7 6 5 5 5 5 5 6 5 4 4 5 7 8 6 4 4 5 5 5 6 6 6 7 7
33 33 33 34 34 33 33 33 33 32 32 31 30 29 28 27 26 25 24 24 23 22 22 22 22 22 23 22 22 20 20 21 20 20 21 20 19 19 19 18 18 18 18 18 17 16 16 15 15 14 13 12 12 12 11 11 11 10 9 9 8 8 8 8 7 6 6 5 5 6 6 5 4 5 5 6 6 5 4 5 6 6 7 7 7 8 8 8
33 33 34 34 34 34 34 34 34 33 32 31 30 30 29 28 27 26 25 24 23 23 22 22 22 22 22 22 22 20 20 21 20 20 20 19 19 18 18 18 18 17 17 17 17 16 15 14 15 14 13 13 12 11 11 12 12 11 10 9 9 9 9 9 8 8 7 6 6 6 7 6 4 5 6 5 5 5 5 5 6 7 7 8 8 8 9 9
34 34 34 35 35 35 35 35 35 34 33 32 31 30 29 28 27 26 25 24 24 23 23 23 22 23 22 22 22 20 20 21 21 20 20 19 19 18 18 18 18 17 16 17 17 16 16 15 15 14 14 14 13 12 12 13 12 12 12 10 10 10 10 10 9 8 8 7 7 6 7 7 5 7 8 6 5 5 5 5 5 7 7 8 8 9 9 10
34 34 34 35 36 35 36 36 35 35 34 33 32 31 30 29 28 26 26 25 24 24 23 23 23 23 22 21 21 21 20 21 21 21 20 19 19 18 18 18 17 16 16 17 17 17 16 16 15 14 14 13 13 13 13 13 13 13 13 11 11 11 11 11 9 9 8 7 7 6 6 7 6 9 8 6 6 5 5 6 6 7 8 8 9 9 10 10
34 34 35 36 36 36 36 36 36 35 34 33 32 31 30 29 28 27 26 25 25 24 24 24 23 23 22 21 21 21 21 21 22 21 20 20 19 18 18 17 16 16 16 16 16 16 16 16 15 15 14 13 13 14 12 13 13 13 12 11 12 11 10 10 9 10 9 8 8 7 7 8 6 7 6 6 7 6 7 8 7 8 8 9 9 10 11 12
35 35 35 36 36 37 37 37 36 35 35 34 33 32 31 29 28 27 27 26 25 25 24 24 24 23 22 21 21 21 22 21 22 21 20 20 19 18 18 17 16 16 16 16 16 16 16 15 15 15 14 13 14 14 13 13 14 13 12 12 12 11 10 10 9 10 9 9 9 8 8 9 7 6 6 6 7 7 8 9 9 9 9 9 10 11 12 12
35 35 35 36 37 37 37 37 37 36 35 34 33 32 31 30 29 28 27 26 26 25 25 24 25 24 22 22 22 22 22 21 22 22 21 20 19 19 18 17 17 16 16 16 16 16 15 15 15 15 14 14 15 14 14 13 14 14 13 12 12 12 12 11 10 10 10 9 10 10 10 9 8 8 8 8 8 9 9 10 11 11 10 10 11 12 12 13
35 35 36 36 37 37 37 37 37 36 35 34 33 32 31 30 29 28 28 27 26 26 26 24 25 24 22 22 22 23 23 22 22 22 22 20 20 19 19 18 17 16 16 16 16 16 15 15 15 15 15 15 16 15 13 14 14 14 14 13 12 12 12 12 11 11 11 11 11 12 12 12 11 11 10 10 10 10 11 12 12 12 12 12 12 12 13 13
36 36 36 36 37 37 38 38 38 37 36 35 34 32 31 30 29 29 28 28 27 26 26 25 25 24 23 23 23 23 23 23 22 22 22 21 20 19 19 18 18 17 17 16 16 16 16 16 16 15 15 16 16 16 14 14 14 14 15 14 13 13 13 12 11 12 12 12 12 13 13 14 14 14 13 13 13 12 12 13 13 14 14 14 14 14 14 15
36 36 36 36 37 37 38 38 38 37 36 35 34 33 31 30 30 29 29 29 28 26 25 26 27 24 22 24 24 22 23 23 22 22 22 22 20 20 19 19 18 18 18 17 17 17 16 16 16 16 17 17 17 17 15 14 13 13 13 14 13 13 13 12 12 12 13 13 14 15 15 15 15 15 15 15 15 14 15 15 15 16 16 16 16 15 15 16
36 36 36 36 37 37 38 38 38 37 37 36 35 33 32 31 30 29 30 30 29 27 25 27 28 25 21 22 24 23 23 23 22 22 22 22 21 20 20 19 19 18 18 18 17 17 17 17 17 17 17 17 18 17 15 14 13 14 13 13 14 12 12 12 12 13 14 14 15 16 16 17 16 16 16 16 16 16 16 16 16 16 16 17 17 17 17 17
36 36 36 36 37 38 38 38 38 38 38 36 36 34 32 32 30 29 30 30 30 28 26 27 27 26 23 22 24 24 22 22 22 22 23 22 22 21 20 20 19 19 19 17 17 17 17 18 18 18 16 15 16 16 15 15 14 15 14 14 14 14 14 13 13 14 14 14 16 16 17 18 17 17 17 18 18 18 18 17 18 18 17 17 17 18 18 17
36 37 36 36 38 38 38 38 38 38 38 37 37 34 31 32 31 30 30 29 31 30 27 28 27 26 24 23 23 23 22 22 22 23 23 23 22 21 21 21 20 19 19 17 17 17 18 19 19 17 16 15 15 15 14 15 16 16 16 15 15 15 14 14 14 15 15 15 17 17 18 19 19 19 19 20 19 20 20 19 19 19 18 17 17 17 18 17
36 36 36 36 38 39 38 39 39 38 39 37 37 35 31 32 31 30 30 28 29 31 29 28 28 27 26 25 24 23 23 23 22 24 24 23 23 22 21 22 21 20 19 19 19 19 19 20 19 18 17 16 16 16 16 16 17 17 17 16 16 16 15 15 16 16 16 16 17 18 20 21 21 20 20 21 21 21 20 20 20 19 17 18 18 17 17 17
35 36 36 37 38 39 39 39 39 39 39 38 37 36 32 31 31 30 30 28 28 30 31 29 28 28 27 26 26 24 23 23 23 24 25 24 23 22 21 22 21 20 20 21 21 20 19 19 19 18 18 18 18 18 18 17 18 18 18 18 17 16 16 16 16 17 18 17 17 19 20 21 20 19 19 18 17 18 19 19 19 19 18 19 18 18 18 18
34 35 36 37 38 39 38 38 39 39 39 38 37 36 33 31 31 31 29 28 28 29 30 31 29 28 28 27 27 25 23 22 22 24 26 25 23 22 21 22 22 21 21 21 21 21 19 19 19 18 19 19 19 19 19 19 18 18 18 18 18 17 16 17 17 17 18 18 18 17 18 19 18 17 18 16 16 17 18 18 19 19 19 18 19 20 20 19
33 35 36 37 38 38 38 37 38 39 39 38 37 36 34 32 31 31 30 27 29 30 30 31 30 29 30 28 28 26 24 24 23 24 26 25 24 23 22 21 21 21 21 20 20 20 20 19 18 18 18 18 18 19 20 19 18 19 18 18 18 16 16 17 17 18 18 19 19 17 17 20 21 21 21 20 20 20 18 18 19 19 18 18 19 19 18 18
33 34 36 37 38 38 37 36 38 40 38 37 37 35 34 32 31 31 29 26 29 31 30 31 31 30 30 29 30 27 25 25 24 24 26 25 24 23 22 22 21 21 21 19 19 20 20 19 19 18 19 19 19 19 19 19 19 19 20 19 18 16 17 18 17 18 19 20 21 19 19 22 24 22 22 21 22 21 19 19 20 19 18 17 16 16 16 17
34 34 36 38 38 39 36 34 37 39 37 36 37 35 34 33 31 31 29 26 28 30 30 31 31 30 29 30 31 28 26 26 25 25 26 25 24 23 22 23 23 23 21 20 21 21 20 20 20 20 20 20 20 20 20 19 19 20 21 19 18 17 18 18 18 19 20 20 21 21 19 21 23 22 21 21 21 20 20 20 20 17 15 14 14 15 16 16
35 35 37 38 38 40 37 34 37 38 36 36 37 35 34 33 31 30 28 28 28 28 29 31 31 31 30 30 30 29 27 26 25 25 26 25 24 23 23 23 23 23 21 20 21 21 20 20 21 20 21 21 20 19 20 19 19 21 21 19 17 18 18 18 19 20 20 21 22 21 19 20 24 23 21 20 19 19 20 19 17 14 12 13 15 16 17 16
36 36 37 38 38 39 38 36 37 38 36 36 37 36 34 32 32 31 29 30 30 29 28 30 32 32 32 31 30 30 28 27 26 25 26 26 25 24 23 23 22 21 21 20 20 21 20 20 20 20 20 20 19 19 19 19 19 21 20 19 18 19 19 19 20 19 19 22 22 21 20 19 22 21 18 18 19 18 18 17 16 14 13 16 18 17 16 15
36 36 37 38 37 38 38 37 37 38 37 36 37 36 34 32 33 32 31 31 31 30 30 30 31 33 34 33 31 31 29 28 28 27 26 26 26 25 25 24 22 21 21 21 21 22 21 20 20 20 20 20 19 19 18 19 20 20 20 19 18 19 19 19 20 19 20 21 21 21 20 20 22 21 18 19 19 18 18 18 16 16 17 19 18 15 14 16
37 37 37 37 37 37 38 36 36 38 38 37 37 37 35 33 33 34 33 31 30 32 33 32 32 34 35 34 32 32 31 29 29 29 27 27 27 27 27 26 25 22 22 23 22 22 22 22 21 20 21 21 20 19 19 19 20 20 20 18 17 18 18 18 19 19 21 22 21 21 20 22 26 25 23 23 22 20 20 19 18 17 18 17 14 15 17 20
38 38 38 37 37 37 38 36 36 38 38 38 38 37 35 34 35 37 36 33 31 31 33 34 33 33 34 34 33 33 32 30 31 30 28 28 28 28 28 28 27 25 23 23 23 22 22 22 22 21 22 23 22 21 20 21 21 21 21 19 18 17 18 20 19 19 21 21 22 21 20 23 26 26 25 25 24 23 22 21 20 17 16 15 17 20 21 21
40 38 38 38 37 37 38 37 36 37 38 38 38 37 37 35 35 38 39 36 32 30 32 34 34 33 35 35 33 34 32 31 32 31 29 29 29 30 30 29 29 27 23 22 23 24 23 23 24 24 23 24 24 23 22 21 21 22 21 20 21 20 19 19 18 19 20 19 21 21 20 22 22 22 23 21 21 21 21 21 21 19 19 20 21 21 20 20
40 40 38 38 38 37 38 38 37 37 39 39 38 38 39 38 37 40 41 38 35 33 32 33 34 34 35 33 33 34 33 31 32 32 31 31 30 30 30 30 31 29 26 24 23 24 24 24 23 22 22 23 23 23 23 21 22 23 22 21 23 23 21 19 19 19 18 19 21 22 23 24 23 25 26 24 24 24 23 24 24 24 24 22 22 21 21 21
40 40 40 39 39 38 38 38 38 38 39 39 39 40 41 40 39 40 39 37 37 36 33 33 33 34 34 33 33 34 33 32 33 32 32 32 32 32 31 30 31 31 28 27 24 23 23 23 22 21 21 21 21 21 22 22 22 22 22 24 25 23 21 20 21 21 19 22 24 23 26 27 25 28 28 26 26 25 24 24 24 24 24 23 24 24 23 23
40 40 41 40 40 39 38 38 38 38 39 40 41 42 42 42 41 38 36 37 38 37 35 34 34 34 34 34 34 34 33 32 33 33 33 32 32 33 33 31 31 32 31 28 26 24 23 23 23 23 22 22 22 21 21 22 22 22 22 24 23 21 21 21 21 20 20 23 24 23 27 27 24 24 23 19 20 22 21 23 23 24 25 25 26 25 23 23
39 40 40 41 41 40 39 38 38 38 38 39 42 42 41 42 41 37 35 37 38 38 37 36 35 35 34 34 34 35 34 33 34 34 33 33 32 33 34 32 31 32 32 29 27 26 25 24 24 24 23 23 22 22 23 23 23 23 24 23 21 21 22 21 21 21 21 22 24 24 26 27 26 26 24 21 22 23 23 24 24 25 25 24 25 24 23 23
36 38 38 41 43 41 40 39 38 38 38 40 43 42 41 42 41 37 36 37 38 39 39 37 35 35 35 35 34 35 35 34 34 34 33 33 33 33 34 32 31 32 33 31 29 27 26 26 25 25 25 24 23 24 26 25 24 24 24 24 23 22 22 22 23 22 21 22 24 24 24 26 27 26 25 25 25 24 23 22 23 23 23 23 25 25 23 23
32 34 35 40 43 42 41 39 38 38 38 40 42 41 40 40 40 39 38 38 37 38 39 38 36 36 36 35 34 34 35 35 35 35 34 33 33 33 33 32 31 31 31 31 30 28 27 27 27 26 26 25 25 27 27 26 25 25 26 25 25 24 23 23 25 24 22 22 23 24 25 29 28 24 24 25 23 22 21 21 23 23 23 24 24 23 23 23
31 31 33 37 42 43 41 39 38 38 39 40 41 40 39 37 38 39 38 38 37 37 37 38 37 36 36 35 35 34 33 34 35 35 34 35 34 33 33 33 31 30 29 30 30 29 28 28 27 26 27 27 27 26 25 26 26 26 27 27 27 27 25 24 25 26 25 24 24 24 26 31 29 24 23 23 21 22 21 22 23 23 24 24 24 23 24 24
31 31 32 35 40 42 41 39 38 38 40 41 40 39 37 36 36 37 37 37 37 36 36 36 37 36 36 36 35 34 33 33 34 34 34 36 35 33 33 32 30 29 28 28 29 29 28 27 27 28 29 28 27 26 25 25 25 26 27 28 28 28 27 26 25 25 25 27 28 26 28 33 30 23 23 24 23 23 23 23 24 24 25 25 25 25 25 25
31 31 31 34 39 41 39 38 39 40 40 40 39 38 37 36 36 35 36 37 37 36 36 35 35 36 36 36 35 35 34 33 34 35 34 34 34 33 32 32 30 29 28 28 28 28 27 27 27 27 27 27 27 27 26 25 26 27 29 28 27 29 29 28 28 26 25 27 28 26 29 34 31 25 25 26 26 26 26 26 27 28 28 27 27 27 27 27
31 31 30 33 38 40 37 36 39 42 42 40 40 40 38 37 37 35 36 37 36 36 37 36 36 35 35 35 35 36 36 34 35 36 35 34 33 33 33 33 31 29 29 29 28 28 28 28 27 25 25 26 27 27 28 28 28 29 30 29 29 30 29 29 29 28 28 31 31 28 31 35 32 27 27 28 28 29 30 30 30 31 30 29 29 29 29 29
31 31 31 32 36 38 36 35 36 40 41 41 42 42 40 39 38 37 36 36 35 36 36 36 36 35 34 35 34 35 37 35 34 35 35 34 33 32 33 34 33 31 30 29 29 28 28 29 28 27 27 28 29 29 29 29 28 29 31 31 31 32 30 30 29 29 32 35 35 33 35 38 35 31 31 31 31 32 33 32 32 32 31 31 31 31 30 30
31 32 32 32 34 35 35 34 34 36 38 40 40 42 42 41 40 38 37 36 35 35 35 35 35 35 35 36 35 35 36 36 34 33 34 34 33 32 33 34 34 33 30 29 30 29 28 30 31 32 33 33 33 32 30 28 27 30 32 32 32 33 33 31 30 32 35 36 36 37 38 40 41 37 34 34 33 33 34 33 33 33 33 32 33 32 31 31
33 33 33 32 32 33 33 33 35 35 35 38 39 39 42 42 40 39 39 38 36 35 35 35 35 36 36 37 37 36 36 37 36 34 35 35 33 32 32 32 33 33 30 30 31 30 29 31 33 35 36 36 36 35 31 30 32 34 34 34 34 34 34 35 36 38 38 35 37 40 37 38 43 41 36 35 35 34 34 33 33 34 33 33 33 32 32 32
35 34 34 33 32 32 32 33 35 35 35 37 37 37 41 42 41 41 40 39 38 37 36 36 37 38 38 37 37 36 36 37 37 37 37 35 33 32 32 32 32 33 31 31 33 31 30 33 35 35 37 38 38 37 34 34 35 35 35 36 35 35 36 38 41 42 40 37 39 41 37 38 43 40 35 35 34 34 34 35 35 34 33 33 33 32 33 33
37 35 35 34 33 33 32 33 33 34 35 36 35 36 39 42 43 42 39 38 39 39 38 38 38 39 38 37 37 37 37 37 38 39 37 35 35 35 34 34 34 34 33 32 33 33 32 34 35 36 37 38 39 39 37 36 37 36 36 36 36 37 38 41 43 43 41 40 41 42 40 42 43 39 35 35 35 35 36 36 36 36 35 35 35 34 35 36
38 37 36 36 35 34 33 33 34 34 34 35 35 35 36 39 42 42 41 40 40 40 40 40 40 38 37 37 37 37 37 36 37 37 36 35 36 37 36 36 35 35 34 34 34 34 34 35 36 35 36 38 40 40 39 37 37 37 36 37 38 39 40 42 42 40 39 40 41 41 41 43 42 37 36 38 38 37 37 37 36 37 36 36 36 36 37 38
40 38 37 37 37 36 35 34 35 35 35 36 36 35 35 37 38 38 40 42 43 41 40 41 40 38 37 38 38 38 36 34 34 34 33 34 36 37 36 36 35 35 36 35 34 34 35 35 35 34 35 38 40 40 39 38 37 38 40 41 41 40 40 40 39 38 38 40 40 40 41 43 40 35 36 38 38 37 38 37 37 37 36 37 38 39 40 40
42 41 39 38 37 38 37 35 35 36 36 36 37 36 36 37 35 34 35 37 41 43 42 41 40 38 38 40 40 38 35 34 34 33 33 33 33 34 34 35 35 35 36 36 35 35 35 36 36 35 35 39 40 38 37 35 35 38 43 44 42 41 40 39 38 39 40 39 39 39 41 42 39 36 37 38 37 37 38 38 37 38 38 39 41 42 42 42
Wind_Direction
203 202 200 199 198 198 198 197 194 192 190 188 186 185 184 184 184 184 184 185 186 186 187 187 187 187 187 188 189 189 189 188 188 188 188 188 188 188 189 189 189 189 190 190 189 190 191 191 191 189 189 190 192 194 197 201 200 202 203 202 217 213 199 211 207 195 192 188 196 193 192 194 190 215 233 242 264 250 217 231 249 285 291 295 311 22 14 253
203 202 201 199 199 198 198 197 194 192 190 189 187 186 186 186 186 186 187 187 188 188 188 188 188 188 188 188 189 190 190 189 190 191 191 190 189 190 190 190 191 191 191 192 192 193 195 194 192 193 195 195 196 198 200 203 202 206 205 206 226 215 207 225 187 199 206 187 192 194 208 218 190 198 215 246 238 220 241 248 235 258 276 267 264 260 269 269
203 202 201 200 199 199 198 197 195 193 191 190 189 188 188 187 188 188 188 189 189 189 189 189 189 189 189 189 189 191 190 191 193 193 191 191 191 191 192 192 193 193 194 195 197 200 204 201 195 198 201 199 201 201 202 206 206 208 206 210 229 215 206 237 194 222 242 190 190 195 219 233 194 194 210 249 246 218 238 248 232 239 248 251 254 252 258 266
203 202 201 200 200 199 199 197 195 194 192 191 190 190 189 189 189 189 189 189 189 190 189 189 189 189 189 189 190 191 190 192 194 192 192 192 192 193 194 196 197 197 198 199 201 203 206 205 200 203 207 204 201 204 205 206 209 209 209 211 228 233 221 234 229 225 242 220 199 190 222 237 218 219 220 246 263 244 247 250 240 242 238 239 249 250 254 262
204 202 201 200 200 200 199 198 195 194 193 192 192 191 190 190 190 190 190 190 190 190 190 190 190 190 190 191 191 190 190 192 193 192 193 194 194 195 197 199 200 201 201 201 203 204 205 206 205 207 212 207 201 208 207 204 211 212 213 213 226 242 227 223 225 223 241 233 198 190 223 227 217 243 239 246 264 266 276 275 268 274 247 229 245 249 256 263
204 202 201 200 201 200 200 198 196 195 194 193 193 192 192 192 192 192 192 192 192 192 191 192 191 191 192 192 192 190 191 193 193 193 194 195 196 198 200 201 202 203 203 204 205 205 206 207 207 209 214 211 205 210 208 206 215 218 217 217 227 235 220 221 224 227 246 233 209 217 233 223 223 249 247 246 255 266 302 312 315 324 306 225 251 260 266 271
204 203 201 200 201 201 200 199 197 196 195 194 194 194 194 194 194 194 194 194 194 193 193 193 193 193 193 193 192 192 195 197 196 195 195 196 198 200 202 203 203 204 204 205 206 206 208 209 209 212 215 214 209 211 213 210 215 221 218 217 224 223 215 221 222 228 243 238 239 247 249 239 235 256 265 251 254 265 285 294 300 310 303 262 269 274 274 276
205 203 202 201 201 201 201 200 198 197 196 196 196 196 195 195 195 195 195 195 195 195 195 195 194 194 194 193 193 195 198 198 197 197 196 198 201 202 202 203 203 204 205 207 209 210 211 211 212 214 215 217 213 212 217 214 218 224 217 213 220 216 214 217 217 225 232 241 251 250 252 252 246 267 280 258 256 265 270 277 285 287 287 277 272 276 277 278
206 205 203 202 201 201 201 200 198 198 197 197 197 197 197 196 196 196 197 197 197 197 197 197 196 196 195 195 196 199 199 198 199 198 198 200 203 203 203 204 204 206 208 208 211 213 213 214 215 215 215 217 215 214 220 220 222 223 214 211 214 212 215 216 217 225 231 240 247 247 251 252 258 272 271 260 257 260 259 261 273 276 277 277 275 275 277 279
207 205 203 202 202 202 202 201 200 199 198 198 198 198 198 197 198 198 198 199 199 199 199 199 198 198 197 197 199 201 200 199 200 199 199 201 203 203 203 204 206 208 210 209 211 214 215 216 215 215 218 218 217 220 223 221 221 217 209 209 211 211 218 224 223 224 232 237 243 253 258 250 249 263 267 266 259 249 247 253 262 271 272 274 276 275 277 279
207 206 204 202 202 202 202 202 201 200 200 200 199 199 199 199 199 200 200 201 201 201 201 200 200 199 199 199 201 202 201 201 200 199 200 202 203 203 204 206 206 209 211 210 211 214 217 218 216 217 221 218 215 220 221 220 221 214 206 209 214 215 220 227 224 223 233 239 245 256 266 257 244 253 254 252 255 246 245 253 259 270 275 275 275 277 278 279
207 206 205 203 203 203 202 203 202 201 201 201 200 200 200 201 201 201 202 202 203 202 202 201 201 200 200 202 204 204 203 202 200 200 201 202 203 203 204 206 208 210 212 210 210 214 216 217 218 218 220 218 215 218 219 220 220 214 214 217 217 221 225 227 224 226 235 241 248 257 265 256 237 246 249 238 243 249 250 257 262 272 278 277 277 279 281 281
207 207 206 204 203 203 203 203 203 202 202 201 201 201 201 202 202 203 203 204 204 204 203 202 202 201 201 204 204 204 204 201 201 201 201 202 203 204 204 206 208 209 210 209 210 214 215 216 217 216 218 221 219 219 218 218 218 217 224 226 219 225 230 225 223 228 234 241 246 251 256 254 238 240 243 231 237 246 254 261 266 274 280 281 281 282 284 284
207 207 207 205 204 203 203 203 203 203 203 202 202 202 203 203 204 204 204 205 205 204 204 203 202 201 202 204 204 204 204 202 202 202 201 203 204 203 204 205 207 208 208 208 210 212 214 215 215 214 219 221 216 217 218 217 220 220 225 230 225 227 231 228 226 227 234 242 241 240 246 256 254 239 233 231 239 248 257 265 270 274 279 282 284 284 286 287
207 207 207 205 204 204 204 204 204 204 203 203 203 204 204 205 205 206 206 206 206 205 204 204 203 202 205 206 205 204 203 203 203 202 202 204 205 205 205 205 206 208 208 209 211 212 213 215 216 215 219 218 213 215 217 218 222 221 222 230 229 227 230 234 235 232 237 241 237 237 244 253 254 237 234 240 246 255 262 269 272 274 279 281 285 287 289 289
208 208 207 206 205 204 204 204 204 204 204 204 204 205 205 206 206 206 206 206 206 205 204 204 204 204 207 207 206 205 204 204 204 203 203 204 206 206 205 206 208 209 210 211 213 213 213 215 217 216 216 218 218 217 216 218 223 223 223 228 229 228 229 235 243 241 239 239 237 240 247 253 251 239 239 246 251 257 265 272 273 275 279 281 284 287 289 291
208 208 207 206 205 204 204 204 204 204 204 204 204 205 206 206 207 207 207 206 205 204 204 205 204 206 210 208 207 207 205 205 204 204 204 205 206 206 207 209 210 210 211 212 214 215 216 216 216 217 218 221 221 217 216 221 225 225 225 228 230 230 230 234 243 242 240 243 244 243 245 252 257 254 252 254 255 256 261 267 272 275 279 281 283 285 287 288
208 208 207 205 205 204 204 204 204 204 204 204 204 205 205 206 206 206 206 204 204 203 205 207 204 206 211 209 207 206 204 204 205 205 205 206 208 208 210 212 211 211 212 214 217 218 218 219 219 220 220 222 222 217 217 223 226 224 225 228 231 234 237 237 239 241 241 245 247 247 247 252 258 261 261 259 257 255 259 265 270 273 277 281 282 282 284 285
207 207 206 206 205 205 204 203 203 204 204 204 204 204 204 205 205 206 205 204 203 204 207 207 204 207 211 208 206 206 205 205 205 206 207 208 210 211 212 213 213 215 215 218 221 221 220 220 222 222 220 222 222 220 221 225 228 225 224 229 233 236 240 239 238 245 247 246 248 249 252 255 257 261 263 263 260 257 260 265 269 272 276 279 280 281 282 282
206 206 207 206 205 204 204 203 203 204 203 203 202 202 203 203 204 206 206 206 206 207 210 208 206 209 209 205 205 205 205 206 208 209 209 209 211 212 214 214 216 220 221 219 220 222 222 222 223 223 223 224 222 220 223 228 230 230 228 233 237 238 242 242 241 248 253 253 251 252 256 258 259 261 264 266 267 266 265 267 269 271 274 276 279 281 280 280
206 206 207 206 205 204 204 203 203 203 203 203 202 203 205 204 206 207 206 208 210 209 211 209 208 210 209 205 205 205 206 208 211 210 210 211 211 213 215 215 217 221 222 219 219 223 224 225 225 223 223 225 224 223 226 230 231 234 235 238 241 240 242 247 247 249 254 256 256 260 263 262 261 263 265 267 268 268 267 268 270 271 274 277 278 278 279 281
205 206 207 206 205 204 203 203 203 203 202 203 204 205 207 206 208 209 207 209 212 211 212 211 210 211 210 208 207 208 210 211 212 212 211 211 212 215 215 217 220 220 221 220 220 224 225 227 225 223 223 224 227 228 229 232 232 234 237 239 242 242 244 250 253 252 254 256 260 266 268 265 264 264 265 264 265 267 268 268 270 273 276 276 276 276 277 279
205 206 206 206 205 203 203 202 202 203 203 204 205 206 208 208 209 209 208 210 212 213 215 214 212 212 211 212 210 211 213 212 212 213 212 211 214 218 216 218 222 221 221 222 222 224 226 228 226 224 224 224 227 230 229 233 235 236 237 239 241 244 246 250 254 254 253 258 264 268 269 266 265 265 264 263 263 265 268 269 272 274 275 276 277 279 279 278
205 205 206 206 205 204 203 202 202 203 204 205 206 207 208 208 209 209 209 213 213 213 215 214 214 214 213 213 211 212 215 215 214 213 212 212 215 219 219 220 222 223 223 223 224 226 227 231 231 227 227 226 227 230 231 234 237 237 237 240 243 245 247 248 254 256 256 262 267 270 272 268 265 264 265 267 265 264 267 270 273 274 275 277 279 280 281 281
204 204 205 204 204 203 202 203 203 203 204 206 207 208 208 208 209 209 211 215 215 214 215 215 214 215 213 213 212 214 217 217 217 214 212 214 217 219 222 223 223 224 224 223 226 228 228 232 232 227 229 231 229 232 233 234 239 240 240 244 247 246 249 252 258 262 263 265 265 270 274 269 266 265 266 270 270 268 269 271 272 274 276 277 279 280 281 282
205 204 204 203 202 201 202 205 205 203 204 206 207 207 208 208 208 209 211 217 218 215 213 213 214 214 213 213 212 213 218 219 218 215 213 216 220 221 223 224 224 226 225 224 228 229 228 232 234 228 228 231 233 236 235 233 240 243 243 249 250 248 251 255 260 261 261 262 262 264 267 267 269 268 267 269 270 269 268 270 271 272 275 276 277 279 280 282
206 205 204 203 202 201 203 206 204 202 204 207 207 207 208 208 208 209 211 219 221 215 212 214 215 214 213 213 211 213 219 218 216 217 216 217 220 222 224 223 224 228 228 226 227 231 228 229 233 231 230 232 234 238 237 232 238 243 245 249 250 249 251 254 258 258 259 265 265 261 263 268 270 268 265 266 268 268 267 270 272 273 274 274 275 277 280 283
206 205 204 202 202 202 204 206 204 203 206 207 207 207 208 208 208 208 211 219 219 212 213 215 214 214 213 212 212 216 219 216 217 220 218 218 221 222 225 226 224 225 229 226 226 233 233 228 230 230 231 234 235 239 242 237 238 243 246 248 248 249 252 254 257 259 263 269 267 263 263 268 269 269 270 268 266 267 267 270 272 273 272 270 273 280 283 284
207 206 204 203 203 205 207 208 207 206 207 207 207 208 207 207 207 208 214 219 215 212 214 213 213 213 212 212 215 217 218 220 222 220 217 219 221 222 225 228 226 223 228 230 228 234 236 232 234 233 232 236 237 242 247 243 241 243 245 248 249 251 253 256 258 261 266 266 262 259 259 265 270 272 272 268 265 266 269 271 272 269 267 271 278 282 281 281
207 206 205 203 204 207 209 210 209 208 209 208 208 207 206 207 207 209 215 217 214 214 215 213 214 213 210 212 217 217 218 223 222 217 218 220 221 223 224 227 227 224 228 231 230 233 235 234 236 236 235 236 236 240 246 245 242 242 245 249 252 254 256 259 259 262 264 263 261 258 256 261 271 274 272 268 267 268 270 273 272 267 269 278 282 278 275 279
207 206 205 205 205 207 209 211 210 208 209 209 207 207 207 208 210 212 215 216 216 217 215 215 214 211 211 214 217 218 218 221 219 216 219 221 222 224 223 225 227 226 229 231 230 233 234 235 236 237 238 236 235 241 246 247 246 245 247 248 252 257 260 260 260 260 259 259 262 264 263 260 261 268 273 272 273 275 276 274 267 265 276 283 281 274 274 283
208 206 206 206 207 208 208 210 210 208 209 208 207 207 207 209 213 216 215 214 218 219 215 215 215 213 214 215 217 218 218 220 220 219 221 222 223 224 224 225 225 226 230 230 231 235 235 236 235 237 241 238 236 240 245 249 250 248 247 246 249 256 259 258 257 256 255 257 261 265 267 262 259 265 269 271 274 277 276 273 267 270 278 279 276 276 281 288
209 208 207 208 209 209 209 210 210 208 208 208 207 208 209 212 215 216 215 214 219 221 216 215 216 215 215 216 218 219 219 221 221 221 222 223 224 226 227 228 226 228 232 229 230 233 236 240 237 236 242 240 237 239 241 246 247 245 244 243 244 249 254 255 255 256 257 258 262 264 265 264 265 269 268 268 272 273 271 269 272 274 273 273 277 282 285 286
210 209 209 209 210 210 210 210 210 209 208 207 207 208 211 215 216 215 216 217 220 222 218 215 215 215 216 218 219 218 220 222 221 221 222 223 225 226 227 228 227 229 232 231 232 232 235 242 238 237 240 238 239 242 241 242 244 246 247 246 245 246 250 254 255 257 260 262 263 262 261 262 265 270 270 270 275 275 272 270 273 275 275 280 285 285 284 282
210 210 210 210 211 211 210 210 210 209 208 207 208 210 212 215 215 215 217 218 220 221 218 215 215 215 218 220 219 219 223 223 221 222 223 224 226 227 227 228 228 229 229 231 236 234 235 242 242 242 242 236 239 246 245 243 246 248 249 248 248 248 251 256 258 258 262 266 263 258 259 261 264 270 271 271 273 274 272 270 272 274 277 282 284 283 282 281
210 211 211 211 211 211 210 210 209 209 208 208 209 213 215 216 217 218 219 219 220 219 216 216 217 217 217 220 221 221 225 226 222 223 226 226 228 228 228 229 228 229 230 231 236 236 235 242 246 247 246 241 243 249 248 245 247 247 245 245 248 251 250 253 260 262 261 264 263 260 263 268 272 274 272 268 268 269 269 271 272 273 275 278 280 282 281 280
211 212 212 212 211 209 209 209 209 209 209 209 212 215 217 218 219 220 220 218 218 217 217 219 220 219 218 220 222 221 223 225 223 225 227 227 230 229 229 231 228 229 232 232 237 239 236 242 247 246 246 247 248 250 248 247 248 245 244 246 250 254 254 252 258 264 260 262 265 260 262 269 270 270 273 273 269 269 269 270 272 273 275 276 279 281 280 280
212 213 214 214 212 209 208 209 208 208 209 212 215 218 219 219 220 221 219 217 217 218 221 223 223 222 221 221 223 222 222 224 224 226 227 228 232 231 229 232 230 228 231 233 237 242 239 242 248 248 247 248 248 247 246 248 248 245 247 250 249 252 254 250 253 259 258 260 265 263 263 266 262 263 271 274 273 272 271 269 270 272 272 274 278 281 281 282
212 213 216 215 212 210 208 208 208 208 210 213 216 218 220 220 220 221 219 218 220 221 222 224 224 223 224 223 223 223 223 224 225 227 228 229 233 232 229 232 233 231 230 232 237 241 241 242 247 249 249 248 246 244 243 246 248 248 252 253 250 251 252 250 250 255 257 259 264 267 266 264 262 264 269 271 271 271 269 268 270 270 269 273 279 282 282 280
210 213 217 214 211 210 208 207 208 210 212 215 217 218 220 220 221 222 220 220 222 224 223 224 224 224 225 224 223 224 226 226 225 227 230 230 233 235 231 231 234 234 232 232 236 239 241 242 244 248 250 246 244 245 244 244 245 247 249 249 249 251 252 255 255 254 255 258 262 265 266 265 265 267 268 269 271 270 266 266 269 269 272 278 281 282 282 280
210 213 215 212 210 209 208 209 212 213 215 217 219 219 220 221 221 221 222 224 225 226 226 224 224 225 225 224 224 225 226 227 226 228 231 230 232 236 234 231 233 234 233 233 236 237 240 242 242 244 247 245 247 250 248 247 246 246 248 248 249 249 249 254 258 255 254 257 260 263 267 268 267 268 268 269 271 272 270 268 268 272 277 282 283 283 283 279
211 213 213 209 207 207 208 214 216 216 217 218 218 219 220 222 222 221 223 226 226 226 226 225 224 225 226 226 226 225 226 227 228 228 231 232 233 235 234 231 229 229 231 234 236 238 239 241 241 243 246 247 250 252 250 250 251 251 251 251 251 250 248 249 255 257 257 258 260 262 266 268 268 269 270 270 269 270 271 271 274 277 279 280 281 282 281 278
211 212 212 208 206 206 209 217 217 216 219 219 218 220 221 221 223 223 223 224 225 225 225 225 225 225 227 227 227 226 226 229 230 229 232 233 234 235 232 229 226 227 231 236 238 238 239 240 241 243 248 251 252 251 251 252 253 252 253 252 251 251 250 250 253 256 257 257 257 260 263 265 268 269 268 269 269 269 270 273 275 277 278 278 279 280 279 279
211 211 213 211 208 208 212 218 217 216 219 219 219 220 220 221 223 223 223 224 225 225 225 226 226 226 228 228 229 228 227 229 232 232 233 234 235 236 231 227 227 230 234 236 236 235 237 239 239 241 247 251 252 252 252 253 253 252 252 252 251 251 251 252 254 255 257 256 254 256 261 263 268 272 271 270 270 270 271 272 273 274 275 277 278 278 277 279
212 211 213 212 210 211 215 220 219 218 218 218 219 220 220 221 222 223 224 225 227 228 227 228 228 227 228 228 229 229 228 230 233 234 234 235 237 239 234 228 229 234 237 236 233 233 237 240 239 239 243 247 249 250 251 252 253 253 253 251 251 251 249 250 253 252 254 256 254 255 261 265 268 270 271 272 271 271 273 273 273 273 274 276 276 276 277 279
215 214 213 212 212 213 216 218 218 218 218 217 220 221 220 222 222 223 225 226 228 229 229 230 229 227 227 227 228 229 230 231 233 233 234 234 236 240 238 232 231 235 238 235 231 234 241 243 241 241 243 246 249 251 251 251 251 252 253 252 250 250 249 249 251 251 253 258 258 257 260 266 269 268 269 271 271 272 274 273 273 273 274 275 276 276 277 278
216 217 215 213 213 214 215 216 216 218 217 217 219 220 220 222 223 224 226 226 228 229 229 231 230 227 226 226 228 230 230 232 233 233 233 234 236 238 239 237 235 235 237 235 233 237 243 244 243 244 246 248 251 253 252 250 251 252 252 252 251 251 250 247 248 252 255 257 259 260 260 263 268 268 268 270 271 272 274 273 272 273 273 274 274 275 277 277
217 218 217 215 215 216 216 216 215 217 217 217 220 221 220 222 223 224 226 227 228 229 229 230 230 229 228 227 229 232 231 232 233 234 234 235 236 237 238 241 240 238 238 238 237 239 242 244 245 246 248 250 252 253 252 251 254 255 253 252 251 250 249 247 250 254 254 253 258 263 262 261 266 269 268 268 270 271 272 272 271 272 272 272 274 275 276 277
217 219 220 219 218 219 219 216 213 215 217 217 220 222 221 222 223 224 226 227 228 229 229 229 230 231 231 231 230 232 232 232 234 234 234 235 236 236 237 240 241 240 240 239 240 243 243 245 246 247 250 252 252 253 253 253 256 257 255 253 251 249 249 249 252 255 255 255 259 264 264 264 267 269 268 269 271 271 273 273 271 270 271 272 274 275 277 278
217 219 220 220 221 221 221 217 214 216 218 218 220 222 221 222 223 224 226 226 226 228 228 229 230 230 232 233 233 233 234 235 236 236 235 234 236 237 238 239 239 240 240 240 242 245 245 246 247 248 251 253 252 254 254 253 254 256 256 255 253 252 251 251 254 256 256 257 260 263 265 266 267 268 270 272 272 272 273 272 270 269 271 273 275 276 277 279
219 220 220 221 222 221 221 219 217 218 220 219 221 222 221 222 223 224 227 227 227 228 228 229 231 232 233 234 234 235 236 236 236 238 238 237 238 239 241 240 239 238 240 241 242 243 244 247 249 248 250 252 253 253 254 254 255 256 255 255 254 253 254 254 255 256 256 257 260 261 262 265 268 270 271 271 271 271 271 270 270 271 272 273 275 276 277 279
222 222 221 222 222 221 221 221 220 221 222 221 221 221 222 223 223 223 226 228 228 229 230 230 231 232 234 234 235 236 235 234 235 237 239 240 240 240 242 243 241 240 240 240 242 243 243 245 248 247 249 253 254 253 253 253 254 253 253 254 254 254 256 257 257 256 256 257 259 259 261 266 270 271 270 271 272 271 271 271 270 271 272 274 275 276 278 279